This is the latest recevied weather packets stored in our database for station/object SK0BO-13. If no packets are shown the sender has not sent any weather packets the latest 10 day(s).
| Time | Temp. | Humidity | Pressure | Rain* | Wind** | Luminosity | Snow |
|---|---|---|---|---|---|---|---|
| 1777788282 | 12.22° C | 23% | 992.7 hPa | 0 mm | - | - | - |
| 1777785762 | 12.78° C | 23% | 992.7 hPa | 0 mm | - | - | - |
| 1777783242 | 13.89° C | 25% | 991.8 hPa | 0 mm | - | - | - |
| 1777780722 | 14.44° C | 22% | 991.7 hPa | 0 mm | - | - | - |
| 1777778202 | 14.44° C | 18% | 990.7 hPa | 0 mm | - | - | - |
| 1777775682 | 15° C | 14% | 990.7 hPa | 0 mm | - | - | - |
| 1777773163 | 16.11° C | 12% | 990.7 hPa | 0 mm | - | - | - |
| 1777770642 | 16.67° C | 10% | 990.7 hPa | 0 mm | - | - | - |
| 1777768122 | 16.67° C | 12% | 990.7 hPa | 0 mm | - | - | - |
| 1777765603 | 17.22° C | 11% | 990.3 hPa | 0 mm | - | - | - |
| 1777763082 | 17.78° C | 9% | 990.6 hPa | 0 mm | - | - | - |
| 1777760563 | 19.44° C | 6% | 990.7 hPa | 0 mm | - | - | - |
| 1777758041 | 20.56° C | 5% | 990.7 hPa | 0 mm | - | - | - |
| 1777755521 | 21.11° C | 3% | 990.7 hPa | 0 mm | - | - | - |
| 1777753003 | 20.56° C | 3% | 990.7 hPa | 0 mm | - | - | - |
| 1777750481 | 20° C | 4% | 990.7 hPa | 0 mm | - | - | - |
| 1777747961 | 22.22° C | - | 990.7 hPa | 0 mm | - | - | - |
| 1777745441 | 26.67° C | - | 990.4 hPa | 0 mm | - | - | - |
| 1777742921 | 33.33° C | - | 990.7 hPa | 0 mm | - | - | - |
| 1777740402 | 38.89° C | - | 990.7 hPa | 0 mm | - | - | - |
| 1777737881 | 40.56° C | - | 991.6 hPa | 0 mm | - | - | - |
| 1777735363 | 41.67° C | - | 991.7 hPa | 0 mm | - | - | - |
| 1777732841 | 41.67° C | - | 992 hPa | 0 mm | - | - | - |
| 1777730321 | 42.22° C | - | 992.7 hPa | 0 mm | - | - | - |
| 1777725281 | 41.67° C | - | 994.7 hPa | 0 mm | - | - | - |
* Rain latest hour (hover to see other rain measurements)
** Current wind speed in m/s (hover to see current wind gust speed)